Regional Weather Roundup
Issued by NWS Newport/Morehead, NC

Home | Current Version | Previous Version | Text Only | Print | Product List | Glossary On
Versions: 1 2 3 4 5 6 7 8 9 10 11 12 13 14 15 16 17 18 19 20 21 22 23 24 25 26 27 28 29 30 31 32 33 34 35 36 37 38 39 40 41 42 43 44 45 46 47 48 49 50
000
ASUS42 KMHX 270325
RWRMHX
WEATHER ROUNDUP FOR EASTERN NORTH CAROLINA
NATIONAL WEATHER SERVICE NEWPORT/MOREHEAD CITY NC
1100 PM EDT MON SEP 26 2016

NOTE: "FAIR" INDICATES FEW OR NO CLOUDS BELOW 12,000 FEET
WITH NO SIGNIFICANT WEATHER AND/OR OBSTRUCTIONS TO VISIBILITY

NCZ015>017-031-032-045>047-102-103-270400-
NORTH COAST

CITY           SKY/WX    TMP DP  RH WIND       PRES   REMARKS
EDENTON        CLOUDY    73  72  97 S6        30.05F
ELIZABETH CITY CLOUDY    73  67  81 S5        30.05F
KITTY HAWK     CLOUDY    74  69  85 S3        30.04F
MANTEO         CLOUDY    76  67  74 S8        30.06S

$$

NCZ045>047-081-094-103-104-270400-
CENTRAL COAST

CITY           SKY/WX    TMP DP  RH WIND       PRES   REMARKS
FRISCO         MOCLDY    78  67  68 S15       30.06F

$$

NCZ095-097-098-100-101-270400-
SOUTHERN COAST

CITY           SKY/WX    TMP DP  RH WIND       PRES   REMARKS
BEAUFORT       CLEAR     75  65  70 SE5       30.04F
CEDAR ISLAND   NOT AVBL
JACKSONVILLE   CLEAR     71  68  90 CALM      30.03F
PINEY ISLAND   PTCLDY   N/A N/A N/A S5        30.04F
WILMINGTON     CLOUDY    70  68  93 NE3       30.03F


$$

NCZ011>013-027>030-043-044-078>080-089-090>093-098-270400-
COASTAL PLAIN

CITY           SKY/WX    TMP DP  RH WIND       PRES   REMARKS
AHOSKIE        PTCLDY    69  65  89 S7        30.04F
CLINTON        CLOUDY    71  68  90 CALM      30.05F
ELIZABETHTOWN  CLOUDY    71  69  92 CALM      30.04F
GOLDSBORO      MOCLDY    71  70  98 SE2       30.03F
GREENVILLE     PTCLDY    70  68  94 S3        30.06F
HAVELOCK       CLEAR     70  67  90 SE6       30.06F
KENANSVILLE    MOCLDY    68  66  94 CALM      30.05F
KINSTON        MOCLDY    70  67  89 CALM      30.05F
NEW BERN       CLEAR     73  67  81 CALM      30.06S
RICHLANDS      CLEAR     68  67  96 NW6       30.05F
ROCKY MOUNT    MOCLDY    70  67  90 S5        30.04F
WASHINGTON     CLEAR     67  65  95 CALM      30.06S
WHITEVILLE     NOT AVBL

$$

AMZ130-135-150-152-154-156-158-170-250-252-270-ANZ085-086-088-633-658-670-270400-
MARINE OBSERVATIONS

STATION/POSITION TIME  TEMP    WIND        PRES    WAVE   SWELL
                       AIR SEA DIR/SP/G            HT/PER HT/PER
                 (UTC) (F)     (DEG/KT/KT) (MB)    (FT/S) (FT/S)
CHESAPEAKE LIGHT NOT AVBL
64 E VA BEACH    0250   75 74  170/  8/ 10 1017.8    4/ 5   3/ 5
DUCK             0300   75 76  160/ 10/ 11 1016.8
2 E DUCK         0241      76                N/A     3/ 7
OREGON INLET     0300   75 76  140/  4/  9 1017.6
13E OREGON INLT  0230      76                N/A     3/ 8   3/ 8
HATTERAS CG      0300   78 78  160/ 11/ 16 1017.3
DIAMOND BUOY     0250   79 84  150/ 16/ 19 1017.6    4/ 8   2/ 8
CAPE LOOKOUT     0300   79     160/  7/  8 1017.2
BEAUFORT LAB     0300   78 77  150/  5/  8 1016.7
30 SE NEW RVR IN 0308   80 82  140/ 10/ 14 1017.0
30 SE NEW RVR IN 0225      82                N/A     3/ 8
27 SE WRIGHTSVLE 0308   80 81  150/ 12/ 16 1016.9
5 SE WRIGHTSVLE  0308   80 81  150/ 12/ 16 1017.8
225 S CAPE HAT   0250   80 83  120/ 14/ 16 1016.7    5/ 5   3/ 8
41 SE CHARLESTON 0250   80 82  100/ 12/ 14 1015.3    3/ 8   2/ 8

$$



USA.gov is the U.S. government's official web portal to all federal, state and local government web resources and services.